Year,Month,Day,Hour,Minute,Value (Times are PST for temperature in C)
2010,02,19,00,00,-0.20
2010,02,19,00,01,-0.20
2010,02,19,00,02,-0.20
2010,02,19,00,03,-0.20
2010,02,19,00,04,-0.20
2010,02,19,00,05,-0.20
2010,02,19,00,06,-0.20
2010,02,19,00,07,-0.20
2010,02,19,00,08,-0.20
2010,02,19,00,09,-0.20
2010,02,19,00,10,-0.20
2010,02,19,00,11,-0.20
2010,02,19,00,12,-0.20
2010,02,19,00,13,-0.20
2010,02,19,00,14,-0.20
2010,02,19,00,15,-0.20
2010,02,19,00,16,-0.20
2010,02,19,00,17,-0.20
2010,02,19,00,18,-0.20
2010,02,19,00,19,-0.20
2010,02,19,00,20,-0.20
2010,02,19,00,21,-0.20
2010,02,19,00,22,-0.20
2010,02,19,00,23,-0.20
2010,02,19,00,24,-0.10
2010,02,19,00,25,-0.10
2010,02,19,00,26,-0.20
2010,02,19,00,27,-0.20
2010,02,19,00,28,-0.20
2010,02,19,00,29,-0.20
2010,02,19,00,30,-0.20
2010,02,19,00,31,-0.20
2010,02,19,00,32,-0.20
2010,02,19,00,33,-0.20
2010,02,19,00,34,-0.20
2010,02,19,00,35,-0.30
2010,02,19,00,36,-0.30
2010,02,19,00,37,-0.30
2010,02,19,00,38,-0.30
2010,02,19,00,39,-0.30
2010,02,19,00,40,-0.30
2010,02,19,00,41,-0.30
2010,02,19,00,42,-0.30
2010,02,19,00,43,-0.40
2010,02,19,00,44,-0.40
2010,02,19,00,45,-0.40
2010,02,19,00,46,-0.40
2010,02,19,00,47,-0.40
2010,02,19,00,48,-0.40
2010,02,19,00,49,-0.40
2010,02,19,00,50,-0.40
2010,02,19,00,51,-0.40
2010,02,19,00,52,-0.40
2010,02,19,00,53,-0.40
2010,02,19,00,54,-0.50
2010,02,19,00,55,-0.50
2010,02,19,00,56,-0.40
2010,02,19,00,57,-0.40
2010,02,19,00,58,-0.40
2010,02,19,00,59,-0.50
2010,02,19,01,00,-0.50
2010,02,19,01,01,-0.50
2010,02,19,01,02,-0.50
2010,02,19,01,03,-0.50
2010,02,19,01,04,-0.60
2010,02,19,01,05,-0.60
2010,02,19,01,06,-0.60
2010,02,19,01,07,-0.60
2010,02,19,01,08,-0.60
2010,02,19,01,09,-0.60
2010,02,19,01,10,-0.60
2010,02,19,01,11,-0.60
2010,02,19,01,12,-0.60
2010,02,19,01,13,-0.60
2010,02,19,01,14,-0.70
2010,02,19,01,15,-0.70
2010,02,19,01,16,-0.60
2010,02,19,01,17,-0.60
2010,02,19,01,18,-0.60
2010,02,19,01,19,-0.60
2010,02,19,01,20,-0.60
2010,02,19,01,21,-0.60
2010,02,19,01,22,-0.60
2010,02,19,01,23,-0.60
2010,02,19,01,24,-0.60
2010,02,19,01,25,-0.60
2010,02,19,01,26,-0.60
2010,02,19,01,27,-0.60
2010,02,19,01,28,-0.70
2010,02,19,01,29,-0.70
2010,02,19,01,30,-0.70
2010,02,19,01,31,-0.70
2010,02,19,01,32,-0.60
2010,02,19,01,33,-0.60
2010,02,19,01,34,-0.70
2010,02,19,01,35,-0.70
2010,02,19,01,36,-0.70
2010,02,19,01,37,-0.70
2010,02,19,01,38,-0.70
2010,02,19,01,39,-0.70
2010,02,19,01,40,-0.70
2010,02,19,01,41,-0.60
2010,02,19,01,42,-0.60
2010,02,19,01,43,-0.50
2010,02,19,01,44,-0.50
2010,02,19,01,45,-0.50
2010,02,19,01,46,-0.40
2010,02,19,01,47,-0.40
2010,02,19,01,48,-0.40
2010,02,19,01,49,-0.40
2010,02,19,01,50,-0.40
2010,02,19,01,51,-0.40
2010,02,19,01,52,-0.40
2010,02,19,01,53,-0.40
2010,02,19,01,54,-0.40
2010,02,19,01,55,-0.50
2010,02,19,01,56,-0.50
2010,02,19,01,57,-0.50
2010,02,19,01,58,-0.50
2010,02,19,01,59,-0.60
2010,02,19,02,00,-0.50
2010,02,19,02,01,-0.50
2010,02,19,02,02,-0.60
2010,02,19,02,03,-0.50
2010,02,19,02,04,-0.50
2010,02,19,02,05,-0.60
2010,02,19,02,06,-0.60
2010,02,19,02,07,-0.60
2010,02,19,02,08,-0.60
2010,02,19,02,09,-0.60
2010,02,19,02,10,-0.60
2010,02,19,02,11,-0.60
2010,02,19,02,12,-0.60
2010,02,19,02,13,-0.60
2010,02,19,02,14,-0.60
2010,02,19,02,15,-0.60
2010,02,19,02,16,-0.60
2010,02,19,02,17,-0.70
2010,02,19,02,18,-0.70
2010,02,19,02,19,-0.70
2010,02,19,02,20,-0.70
2010,02,19,02,21,-0.70
2010,02,19,02,22,-0.80
2010,02,19,02,23,-0.80
2010,02,19,02,24,-0.80
2010,02,19,02,25,-0.80
2010,02,19,02,26,-0.90
2010,02,19,02,27,-0.90
2010,02,19,02,28,-0.90
2010,02,19,02,29,-0.90
2010,02,19,02,30,-0.90
2010,02,19,02,31,-0.90
2010,02,19,02,32,-0.80
2010,02,19,02,33,-0.80
2010,02,19,02,34,-0.80
2010,02,19,02,35,-0.80
2010,02,19,02,36,-0.90
2010,02,19,02,37,-0.90
2010,02,19,02,38,-0.80
2010,02,19,02,39,-0.80
2010,02,19,02,40,-0.80
2010,02,19,02,41,-0.80
2010,02,19,02,42,-0.80
2010,02,19,02,43,-0.90
2010,02,19,02,44,-0.90
2010,02,19,02,45,-0.90
2010,02,19,02,46,-0.90
2010,02,19,02,47,-0.90
2010,02,19,02,48,-0.90
2010,02,19,02,49,-1.00
2010,02,19,02,50,-1.00
2010,02,19,02,51,-1.00
2010,02,19,02,52,-1.00
2010,02,19,02,53,-1.00
2010,02,19,02,54,-1.00
2010,02,19,02,55,-0.90
2010,02,19,02,56,-0.90
2010,02,19,02,57,-0.90
2010,02,19,02,58,-0.90
2010,02,19,02,59,-0.90
2010,02,19,03,00,-0.90
2010,02,19,03,01,-0.90
2010,02,19,03,02,-0.90
2010,02,19,03,03,-0.90
2010,02,19,03,04,-0.90
2010,02,19,03,05,-0.90
2010,02,19,03,06,-0.90
2010,02,19,03,07,-0.90
2010,02,19,03,08,-0.90
2010,02,19,03,09,-0.90
2010,02,19,03,10,-0.90
2010,02,19,03,11,-0.90
2010,02,19,03,12,-0.90
2010,02,19,03,13,-0.90
2010,02,19,03,14,-0.90
2010,02,19,03,15,-0.90
2010,02,19,03,16,-1.00
2010,02,19,03,17,-1.00
2010,02,19,03,18,-1.00
2010,02,19,03,19,-1.00
2010,02,19,03,20,-1.00
2010,02,19,03,21,-1.00
2010,02,19,03,22,-0.90
2010,02,19,03,23,-0.90
2010,02,19,03,24,-1.00
2010,02,19,03,25,-0.90
2010,02,19,03,26,-1.00
2010,02,19,03,27,-1.00
2010,02,19,03,28,-1.00
2010,02,19,03,29,-1.00
2010,02,19,03,30,-1.00
2010,02,19,03,31,-1.10
2010,02,19,03,32,-1.10
2010,02,19,03,33,-1.10
2010,02,19,03,34,-1.10
2010,02,19,03,35,-1.10
2010,02,19,03,36,-1.10
2010,02,19,03,37,-1.10
2010,02,19,03,38,-1.10
2010,02,19,03,39,-1.10
2010,02,19,03,40,-1.10
2010,02,19,03,41,-1.10
2010,02,19,03,42,-1.10
2010,02,19,03,43,-1.10
2010,02,19,03,44,-1.10
2010,02,19,03,45,-1.10
2010,02,19,03,46,-1.10
2010,02,19,03,47,-1.10
2010,02,19,03,48,-1.10
2010,02,19,03,49,-1.10
2010,02,19,03,50,-1.10
2010,02,19,03,51,-1.10
2010,02,19,03,52,-1.10
2010,02,19,03,53,-1.20
2010,02,19,03,54,-1.20
2010,02,19,03,55,-1.20
2010,02,19,03,56,-1.20
2010,02,19,03,57,-1.20
2010,02,19,03,58,-1.10
2010,02,19,03,59,-1.10
2010,02,19,04,00,-1.10
2010,02,19,04,01,-1.10
2010,02,19,04,02,-1.10
2010,02,19,04,03,-1.10
2010,02,19,04,04,-1.10
2010,02,19,04,05,-1.10
2010,02,19,04,06,-1.10
2010,02,19,04,07,-1.10
2010,02,19,04,08,-1.10
2010,02,19,04,09,-1.10
2010,02,19,04,10,-1.10
2010,02,19,04,11,-1.10
2010,02,19,04,12,-1.10
2010,02,19,04,13,-1.10
2010,02,19,04,14,-1.10
2010,02,19,04,15,-1.10
2010,02,19,04,16,-1.10
2010,02,19,04,17,-1.10
2010,02,19,04,18,-1.10
2010,02,19,04,19,-1.10
2010,02,19,04,20,-1.20
2010,02,19,04,21,-1.20
2010,02,19,04,22,-1.20
2010,02,19,04,23,-1.20
2010,02,19,04,24,-1.20
2010,02,19,04,25,-1.20
2010,02,19,04,26,-1.20
2010,02,19,04,27,-1.20
2010,02,19,04,28,-1.20
2010,02,19,04,29,-1.20
2010,02,19,04,30,-1.20
2010,02,19,04,31,-1.20
2010,02,19,04,32,-1.20
2010,02,19,04,33,-1.20
2010,02,19,04,34,-1.20
2010,02,19,04,35,-1.20
2010,02,19,04,36,-1.20
2010,02,19,04,37,-1.10
2010,02,19,04,38,-1.10
2010,02,19,04,39,-1.10
2010,02,19,04,40,-1.10
2010,02,19,04,41,-1.10
2010,02,19,04,42,-1.10
2010,02,19,04,43,-1.10
2010,02,19,04,44,-1.10
2010,02,19,04,45,-1.10
2010,02,19,04,46,-1.10
2010,02,19,04,47,-1.10
2010,02,19,04,48,-1.10
2010,02,19,04,49,-1.10
2010,02,19,04,50,-1.10
2010,02,19,04,51,-1.10
2010,02,19,04,52,-1.10
2010,02,19,04,53,-1.10
2010,02,19,04,54,-1.10
2010,02,19,04,55,-1.10
2010,02,19,04,56,-1.10
2010,02,19,04,57,-1.10
2010,02,19,04,58,-1.10
2010,02,19,04,59,-1.10
2010,02,19,05,00,-1.10
2010,02,19,05,01,-1.20
2010,02,19,05,02,-1.20
2010,02,19,05,03,-1.20
2010,02,19,05,04,-1.20
2010,02,19,05,05,-1.20
2010,02,19,05,06,-1.20
2010,02,19,05,07,-1.30
2010,02,19,05,08,-1.30
2010,02,19,05,09,-1.30
2010,02,19,05,10,-1.30
2010,02,19,05,11,-1.20
2010,02,19,05,12,-1.20
2010,02,19,05,13,-1.20
2010,02,19,05,14,-1.20
2010,02,19,05,15,-1.20
2010,02,19,05,16,-1.20
2010,02,19,05,17,-1.20
2010,02,19,05,18,-1.20
2010,02,19,05,19,-1.20
2010,02,19,05,20,-1.20
2010,02,19,05,21,-1.20
2010,02,19,05,22,-1.20
2010,02,19,05,23,-1.20
2010,02,19,05,24,-1.10
2010,02,19,05,25,-1.10
2010,02,19,05,26,-1.10
2010,02,19,05,27,-1.10
2010,02,19,05,28,-1.10
2010,02,19,05,29,-1.10
2010,02,19,05,30,-1.20
2010,02,19,05,31,-1.20
2010,02,19,05,32,-1.20
2010,02,19,05,33,-1.20
2010,02,19,05,34,-1.20
2010,02,19,05,35,-1.20
2010,02,19,05,36,-1.20
2010,02,19,05,37,-1.20
2010,02,19,05,38,-1.20
2010,02,19,05,39,-1.20
2010,02,19,05,40,-1.20
2010,02,19,05,41,-1.20
2010,02,19,05,42,-1.20
2010,02,19,05,43,-1.20
2010,02,19,05,44,-1.20
2010,02,19,05,45,-1.20
2010,02,19,05,46,-1.20
2010,02,19,05,47,-1.20
2010,02,19,05,48,-1.20
2010,02,19,05,49,-1.20
2010,02,19,05,50,-1.20
2010,02,19,05,51,-1.20
2010,02,19,05,52,-1.20
2010,02,19,05,53,-1.30
2010,02,19,05,54,-1.30
2010,02,19,05,55,-1.30
2010,02,19,05,56,-1.30
2010,02,19,05,57,-1.30
2010,02,19,05,58,-1.30
2010,02,19,05,59,-1.30
2010,02,19,06,00,-1.30
2010,02,19,06,01,-1.30
2010,02,19,06,02,-1.30
2010,02,19,06,03,-1.20
2010,02,19,06,04,-1.20
2010,02,19,06,05,-1.20
2010,02,19,06,06,-1.20
2010,02,19,06,07,-1.20
2010,02,19,06,08,-1.20
2010,02,19,06,09,-1.20
2010,02,19,06,10,-1.20
2010,02,19,06,11,-1.20
2010,02,19,06,12,-1.30
2010,02,19,06,13,-1.30
2010,02,19,06,14,-1.30
2010,02,19,06,15,-1.30
2010,02,19,06,16,-1.20
2010,02,19,06,17,-1.20
2010,02,19,06,18,-1.20
2010,02,19,06,19,-1.20
2010,02,19,06,20,-1.20
2010,02,19,06,21,-1.20
2010,02,19,06,22,-1.20
2010,02,19,06,23,-1.20
2010,02,19,06,24,-1.20
2010,02,19,06,25,-1.20
2010,02,19,06,26,-1.20
2010,02,19,06,27,-1.20
2010,02,19,06,28,-1.20
2010,02,19,06,29,-1.20
2010,02,19,06,30,-1.20
2010,02,19,06,31,-1.20
2010,02,19,06,32,-1.20
2010,02,19,06,33,-1.20
2010,02,19,06,34,-1.20
2010,02,19,06,35,-1.20
2010,02,19,06,36,-1.20
2010,02,19,06,37,-1.20
2010,02,19,06,38,-1.20
2010,02,19,06,39,-1.20
2010,02,19,06,40,-1.20
2010,02,19,06,41,-1.20
2010,02,19,06,42,-1.20
2010,02,19,06,43,-1.20
2010,02,19,06,44,-1.20
2010,02,19,06,45,-1.30
2010,02,19,06,46,-1.30
2010,02,19,06,47,-1.30
2010,02,19,06,48,-1.30
2010,02,19,06,49,-1.30
2010,02,19,06,50,-1.30
2010,02,19,06,51,-1.30
2010,02,19,06,52,-1.30
2010,02,19,06,53,-1.20
2010,02,19,06,54,-1.20
2010,02,19,06,55,-1.20
2010,02,19,06,56,-1.20
2010,02,19,06,57,-1.20
2010,02,19,06,58,-1.20
2010,02,19,06,59,-1.10
2010,02,19,07,00,-1.10
2010,02,19,07,01,-1.10
2010,02,19,07,02,-1.10
2010,02,19,07,03,-1.10
2010,02,19,07,04,-1.10
2010,02,19,07,05,-1.10
2010,02,19,07,06,-1.10
2010,02,19,07,07,-1.10
2010,02,19,07,08,-1.10
2010,02,19,07,09,-1.10
2010,02,19,07,10,-1.10
2010,02,19,07,11,-1.10
2010,02,19,07,12,-1.10
2010,02,19,07,13,-1.10
2010,02,19,07,14,-1.10
2010,02,19,07,15,-1.10
2010,02,19,07,16,-1.10
2010,02,19,07,17,-1.10
2010,02,19,07,18,-1.10
2010,02,19,07,19,-1.10
2010,02,19,07,20,-1.10
2010,02,19,07,21,-1.10
2010,02,19,07,22,-1.10
2010,02,19,07,23,-1.10
2010,02,19,07,24,-1.10
2010,02,19,07,25,-1.10
2010,02,19,07,26,-1.10
2010,02,19,07,27,-1.10
2010,02,19,07,28,-1.10
2010,02,19,07,29,-1.10
2010,02,19,07,30,-1.10
2010,02,19,07,31,-1.10
2010,02,19,07,32,-1.10
2010,02,19,07,33,-1.10
2010,02,19,07,34,-1.10
2010,02,19,07,35,-1.10
2010,02,19,07,36,-1.10
2010,02,19,07,37,-1.10
2010,02,19,07,38,-1.20
2010,02,19,07,39,-1.20
2010,02,19,07,40,-1.20
2010,02,19,07,41,-1.10
2010,02,19,07,42,-1.10
2010,02,19,07,43,-1.10
2010,02,19,07,44,-1.10
2010,02,19,07,45,-1.10
2010,02,19,07,46,-1.10
2010,02,19,07,47,-1.10
2010,02,19,07,48,-1.10
2010,02,19,07,49,-1.10
2010,02,19,07,50,-1.10
2010,02,19,07,51,-1.10
2010,02,19,07,52,-1.00
2010,02,19,07,53,-1.00
2010,02,19,07,54,-1.00
2010,02,19,07,55,-1.00
2010,02,19,07,56,-1.00
2010,02,19,07,57,-0.90
2010,02,19,07,58,-0.90
2010,02,19,07,59,-0.90
2010,02,19,08,00,-0.90
2010,02,19,08,01,-0.90
2010,02,19,08,02,-0.90
2010,02,19,08,03,-0.80
2010,02,19,08,04,-0.80
2010,02,19,08,05,-0.80
2010,02,19,08,06,-0.80
2010,02,19,08,07,-0.80
2010,02,19,08,08,-0.80
2010,02,19,08,09,-0.80
2010,02,19,08,10,-0.70
2010,02,19,08,11,-0.70
2010,02,19,08,12,-0.70
2010,02,19,08,13,-0.70
2010,02,19,08,14,-0.70
2010,02,19,08,15,-0.60
2010,02,19,08,16,-0.60
2010,02,19,08,17,-0.60
2010,02,19,08,18,-0.60
2010,02,19,08,19,-0.60
2010,02,19,08,20,-0.60
2010,02,19,08,21,-0.60
2010,02,19,08,22,-0.60
2010,02,19,08,23,-0.60
2010,02,19,08,24,-0.60
2010,02,19,08,25,-0.60
2010,02,19,08,26,-0.40
2010,02,19,08,27,-0.40
2010,02,19,08,28,-0.40
2010,02,19,08,29,-0.30
2010,02,19,08,30,-0.30
2010,02,19,08,31,-0.30
2010,02,19,08,32,-0.30
2010,02,19,08,33,-0.20
2010,02,19,08,34,-0.20
2010,02,19,08,35,-0.20
2010,02,19,08,36,-0.10
2010,02,19,08,37,-0.10
2010,02,19,08,38,-0.10
2010,02,19,08,39,-0.10
2010,02,19,08,40,-0.10
2010,02,19,08,41,0.00
2010,02,19,08,42,0.00
2010,02,19,08,43,0.00
2010,02,19,08,44,0.00
2010,02,19,08,45,0.00
2010,02,19,08,46,0.10
2010,02,19,08,47,0.10
2010,02,19,08,48,0.10
2010,02,19,08,49,0.10
2010,02,19,08,50,0.10
2010,02,19,08,51,0.20
2010,02,19,08,52,0.20
2010,02,19,08,53,0.20
2010,02,19,08,54,0.20
2010,02,19,08,55,0.20
2010,02,19,08,56,0.30
2010,02,19,08,57,0.30
2010,02,19,08,58,0.30
2010,02,19,08,59,0.30
2010,02,19,09,00,0.30
2010,02,19,09,01,0.40
2010,02,19,09,02,0.40
2010,02,19,09,03,0.40
2010,02,19,09,04,0.40
2010,02,19,09,05,0.50
2010,02,19,09,06,0.50
2010,02,19,09,07,0.50
2010,02,19,09,08,0.50
2010,02,19,09,09,0.60
2010,02,19,09,10,0.60
2010,02,19,09,11,0.60
2010,02,19,09,12,0.70
2010,02,19,09,13,0.70
2010,02,19,09,14,0.70
2010,02,19,09,15,0.80
2010,02,19,09,16,0.80
2010,02,19,09,17,0.80
2010,02,19,09,18,0.80
2010,02,19,09,19,0.80
2010,02,19,09,20,0.90
2010,02,19,09,21,0.90
2010,02,19,09,22,0.90
2010,02,19,09,23,0.90
2010,02,19,09,24,1.00
2010,02,19,09,25,1.00
2010,02,19,09,26,1.10
2010,02,19,09,27,1.10
2010,02,19,09,28,1.20
2010,02,19,09,29,1.20
2010,02,19,09,30,1.30
2010,02,19,09,31,1.30
2010,02,19,09,32,1.30
2010,02,19,09,33,1.30
2010,02,19,09,34,1.40
2010,02,19,09,35,1.50
2010,02,19,09,36,1.50
2010,02,19,09,37,1.60
2010,02,19,09,38,1.70
2010,02,19,09,39,1.70
2010,02,19,09,40,1.80
2010,02,19,09,41,1.90
2010,02,19,09,42,2.00
2010,02,19,09,43,2.10
2010,02,19,09,44,2.20
2010,02,19,09,45,2.30
2010,02,19,09,46,2.40
2010,02,19,09,47,2.40
2010,02,19,09,48,2.50
2010,02,19,09,49,2.60
2010,02,19,09,50,2.70
2010,02,19,09,51,2.70
2010,02,19,09,52,2.70
2010,02,19,09,53,2.80
2010,02,19,09,54,2.80
2010,02,19,09,55,2.90
2010,02,19,09,56,3.00
2010,02,19,09,57,3.10
2010,02,19,09,58,3.20
2010,02,19,09,59,3.30
2010,02,19,10,00,3.30
2010,02,19,10,01,3.40
2010,02,19,10,02,3.50
2010,02,19,10,03,3.60
2010,02,19,10,04,3.60
2010,02,19,10,05,3.70
2010,02,19,10,06,3.70
2010,02,19,10,07,3.70
2010,02,19,10,08,3.70
2010,02,19,10,09,3.70
2010,02,19,10,10,3.80
2010,02,19,10,11,3.80
2010,02,19,10,12,3.90
2010,02,19,10,13,3.90
2010,02,19,10,14,4.00
2010,02,19,10,15,4.00
2010,02,19,10,16,4.10
2010,02,19,10,17,4.10
2010,02,19,10,18,4.20
2010,02,19,10,19,4.20
2010,02,19,10,20,4.30
2010,02,19,10,21,4.40
2010,02,19,10,22,4.40
2010,02,19,10,23,4.50
2010,02,19,10,24,4.60
2010,02,19,10,25,4.60
2010,02,19,10,26,4.70
2010,02,19,10,27,4.70
2010,02,19,10,28,4.80
2010,02,19,10,29,4.90
2010,02,19,10,30,4.90
2010,02,19,10,31,5.00
2010,02,19,10,32,5.10
2010,02,19,10,33,5.10
2010,02,19,10,34,5.10
2010,02,19,10,35,5.20
2010,02,19,10,36,5.30
2010,02,19,10,37,5.30
2010,02,19,10,38,5.40
2010,02,19,10,39,5.50
2010,02,19,10,40,5.60
2010,02,19,10,41,5.70
2010,02,19,10,42,5.80
2010,02,19,10,43,5.90
2010,02,19,10,44,6.00
2010,02,19,10,45,6.10
2010,02,19,10,46,6.20
2010,02,19,10,47,6.30
2010,02,19,10,48,6.40
2010,02,19,10,49,6.50
2010,02,19,10,50,6.60
2010,02,19,10,51,6.70
2010,02,19,10,52,6.80
2010,02,19,10,53,6.80
2010,02,19,10,54,6.90
2010,02,19,10,55,7.00
2010,02,19,10,56,7.10
2010,02,19,10,57,7.20
2010,02,19,10,58,7.20
2010,02,19,10,59,7.30
2010,02,19,11,00,7.40
2010,02,19,11,01,7.50
2010,02,19,11,02,7.60
2010,02,19,11,03,7.60
2010,02,19,11,04,7.70
2010,02,19,11,05,7.80
2010,02,19,11,06,7.90
2010,02,19,11,07,8.00
2010,02,19,11,08,8.10
2010,02,19,11,09,8.20
2010,02,19,11,10,8.30
2010,02,19,11,11,8.40
2010,02,19,11,12,8.50
2010,02,19,11,13,8.60
2010,02,19,11,14,8.70
2010,02,19,11,15,8.80
2010,02,19,11,16,8.90
2010,02,19,11,17,9.00
2010,02,19,11,18,9.00
2010,02,19,11,19,9.10
2010,02,19,11,20,9.20
2010,02,19,11,21,9.20
2010,02,19,11,22,9.30
2010,02,19,11,23,9.40
2010,02,19,11,24,9.40
2010,02,19,11,25,9.50
2010,02,19,11,26,9.50
2010,02,19,11,27,9.60
2010,02,19,11,28,9.60
2010,02,19,11,29,9.70
2010,02,19,11,30,9.80
2010,02,19,11,31,9.80
2010,02,19,11,32,9.90
2010,02,19,11,33,10.00
2010,02,19,11,34,10.00
2010,02,19,11,35,10.10
2010,02,19,11,36,10.10
2010,02,19,11,37,10.20
2010,02,19,11,38,10.20
2010,02,19,11,39,10.30
2010,02,19,11,40,10.40
2010,02,19,11,41,10.50
2010,02,19,11,42,10.60
2010,02,19,11,43,10.60
2010,02,19,11,44,10.70
2010,02,19,11,45,10.80
2010,02,19,11,46,10.90
2010,02,19,11,47,11.00
2010,02,19,11,48,11.10
2010,02,19,11,49,11.20
2010,02,19,11,50,11.20
2010,02,19,11,51,11.30
2010,02,19,11,52,11.40
2010,02,19,11,53,11.40
2010,02,19,11,54,11.50
2010,02,19,11,55,11.50
2010,02,19,11,56,11.50
2010,02,19,11,57,11.60
2010,02,19,11,58,11.60
2010,02,19,11,59,11.70
2010,02,19,12,00,11.70
2010,02,19,12,01,11.70
2010,02,19,12,02,11.70
2010,02,19,12,03,11.80
2010,02,19,12,04,11.80
2010,02,19,12,05,11.80
2010,02,19,12,06,11.80
2010,02,19,12,07,11.80
2010,02,19,12,08,11.80
2010,02,19,12,09,11.90
2010,02,19,12,10,11.90
2010,02,19,12,11,12.00
2010,02,19,12,12,12.00
2010,02,19,12,13,12.00
2010,02,19,12,14,12.10
2010,02,19,12,15,12.10
2010,02,19,12,16,12.10
2010,02,19,12,17,12.10
2010,02,19,12,18,12.20
2010,02,19,12,19,12.20
2010,02,19,12,20,12.30
2010,02,19,12,21,12.30
2010,02,19,12,22,12.40
2010,02,19,12,23,12.40
2010,02,19,12,24,12.40
2010,02,19,12,25,12.40
2010,02,19,12,26,12.30
2010,02,19,12,27,12.40
2010,02,19,12,28,12.40
2010,02,19,12,29,12.40
2010,02,19,12,30,12.40
2010,02,19,12,31,12.40
2010,02,19,12,32,12.40
2010,02,19,12,33,12.40
2010,02,19,12,34,12.40
2010,02,19,12,35,12.40
2010,02,19,12,36,12.40
2010,02,19,12,37,12.40
2010,02,19,12,38,12.50
2010,02,19,12,39,12.50
2010,02,19,12,40,12.60
2010,02,19,12,41,12.60
2010,02,19,12,42,12.60
2010,02,19,12,43,12.70
2010,02,19,12,44,12.70
2010,02,19,12,45,12.70
2010,02,19,12,46,12.80
2010,02,19,12,47,12.80
2010,02,19,12,48,12.80
2010,02,19,12,49,12.80
2010,02,19,12,50,12.90
2010,02,19,12,51,12.90
2010,02,19,12,52,12.90
2010,02,19,12,53,13.00
2010,02,19,12,54,13.00
2010,02,19,12,55,13.00
2010,02,19,12,56,13.10
2010,02,19,12,57,13.10
2010,02,19,12,58,13.10
2010,02,19,12,59,13.10
2010,02,19,13,00,13.10
2010,02,19,13,01,13.10
2010,02,19,13,02,13.10
2010,02,19,13,03,13.00
2010,02,19,13,04,13.00
2010,02,19,13,05,13.00
2010,02,19,13,06,13.10
2010,02,19,13,07,13.20
2010,02,19,13,08,13.20
2010,02,19,13,09,13.30
2010,02,19,13,10,13.30
2010,02,19,13,11,13.30
2010,02,19,13,12,13.30
2010,02,19,13,13,13.30
2010,02,19,13,14,13.20
2010,02,19,13,15,13.20
2010,02,19,13,16,13.30
2010,02,19,13,17,13.30
2010,02,19,13,18,13.40
2010,02,19,13,19,13.40
2010,02,19,13,20,13.40
2010,02,19,13,21,13.40
2010,02,19,13,22,13.30
2010,02,19,13,23,13.30
2010,02,19,13,24,13.30
2010,02,19,13,25,13.40
2010,02,19,13,26,13.40
2010,02,19,13,27,13.40
2010,02,19,13,28,13.50
2010,02,19,13,29,13.50
2010,02,19,13,30,13.60
2010,02,19,13,31,13.60
2010,02,19,13,32,13.60
2010,02,19,13,33,13.60
2010,02,19,13,34,13.70
2010,02,19,13,35,13.70
2010,02,19,13,36,13.80
2010,02,19,13,37,13.80
2010,02,19,13,38,13.90
2010,02,19,13,39,14.00
2010,02,19,13,40,14.10
2010,02,19,13,41,14.10
2010,02,19,13,42,14.20
2010,02,19,13,43,14.20
2010,02,19,13,44,14.10
2010,02,19,13,45,14.00
2010,02,19,13,46,14.00
2010,02,19,13,47,13.90
2010,02,19,13,48,13.90
2010,02,19,13,49,13.80
2010,02,19,13,50,13.80
2010,02,19,13,51,13.80
2010,02,19,13,52,13.90
2010,02,19,13,53,13.90
2010,02,19,13,54,13.80
2010,02,19,13,55,13.80
2010,02,19,13,56,13.90
2010,02,19,13,57,13.90
2010,02,19,13,58,13.90
2010,02,19,13,59,13.80
2010,02,19,14,00,13.80
2010,02,19,14,01,13.80
2010,02,19,14,02,13.90
2010,02,19,14,03,13.90
2010,02,19,14,04,14.00
2010,02,19,14,05,14.00
2010,02,19,14,06,13.90
2010,02,19,14,07,13.90
2010,02,19,14,08,13.80
2010,02,19,14,09,13.70
2010,02,19,14,10,13.60
2010,02,19,14,11,13.60
2010,02,19,14,12,13.60
2010,02,19,14,13,13.60
2010,02,19,14,14,13.70
2010,02,19,14,15,13.80
2010,02,19,14,16,13.90
2010,02,19,14,17,14.00
2010,02,19,14,18,14.10
2010,02,19,14,19,14.20
2010,02,19,14,20,14.30
2010,02,19,14,21,14.30
2010,02,19,14,22,14.40
2010,02,19,14,23,14.30
2010,02,19,14,24,14.30
2010,02,19,14,25,14.20
2010,02,19,14,26,14.20
2010,02,19,14,27,14.20
2010,02,19,14,28,14.30
2010,02,19,14,29,14.30
2010,02,19,14,30,14.40
2010,02,19,14,31,14.40
2010,02,19,14,32,14.50
2010,02,19,14,33,14.60
2010,02,19,14,34,14.70
2010,02,19,14,35,14.80
2010,02,19,14,36,14.80
2010,02,19,14,37,14.80
2010,02,19,14,38,14.80
2010,02,19,14,39,14.80
2010,02,19,14,40,14.80
2010,02,19,14,41,14.80
2010,02,19,14,42,14.80
2010,02,19,14,43,14.70
2010,02,19,14,44,14.70
2010,02,19,14,45,14.60
2010,02,19,14,46,14.60
2010,02,19,14,47,14.60
2010,02,19,14,48,14.70
2010,02,19,14,49,14.70
2010,02,19,14,50,14.80
2010,02,19,14,51,14.80
2010,02,19,14,52,14.80
2010,02,19,14,53,14.70
2010,02,19,14,54,14.70
2010,02,19,14,55,14.70
2010,02,19,14,56,14.70
2010,02,19,14,57,14.70
2010,02,19,14,58,14.70
2010,02,19,14,59,14.70
2010,02,19,15,00,14.70
2010,02,19,15,01,14.70
2010,02,19,15,02,14.60
2010,02,19,15,03,14.60
2010,02,19,15,04,14.60
2010,02,19,15,05,14.50
2010,02,19,15,06,14.50
2010,02,19,15,07,14.40
2010,02,19,15,08,14.40
2010,02,19,15,09,14.40
2010,02,19,15,10,14.30
2010,02,19,15,11,14.20
2010,02,19,15,12,14.20
2010,02,19,15,13,14.20
2010,02,19,15,14,14.20
2010,02,19,15,15,14.20
2010,02,19,15,16,14.20
2010,02,19,15,17,14.20
2010,02,19,15,18,14.20
2010,02,19,15,19,14.30
2010,02,19,15,20,14.30
2010,02,19,15,21,14.40
2010,02,19,15,22,14.40
2010,02,19,15,23,14.50
2010,02,19,15,24,14.60
2010,02,19,15,25,14.60
2010,02,19,15,26,14.60
2010,02,19,15,27,14.70
2010,02,19,15,28,14.70
2010,02,19,15,29,14.70
2010,02,19,15,30,14.70
2010,02,19,15,31,14.60
2010,02,19,15,32,14.60
2010,02,19,15,33,14.70
2010,02,19,15,34,14.70
2010,02,19,15,35,14.80
2010,02,19,15,36,14.80
2010,02,19,15,37,14.90
2010,02,19,15,38,14.90
2010,02,19,15,39,15.00
2010,02,19,15,40,15.00
2010,02,19,15,41,15.00
2010,02,19,15,42,15.00
2010,02,19,15,43,15.00
2010,02,19,15,44,15.00
2010,02,19,15,45,15.00
2010,02,19,15,46,15.10
2010,02,19,15,47,15.10
2010,02,19,15,48,15.10
2010,02,19,15,49,15.20
2010,02,19,15,50,15.20
2010,02,19,15,51,15.20
2010,02,19,15,52,15.20
2010,02,19,15,53,15.20
2010,02,19,15,54,15.20
2010,02,19,15,55,15.20
2010,02,19,15,56,15.20
2010,02,19,15,57,15.20
2010,02,19,15,58,15.20
2010,02,19,15,59,15.20
2010,02,19,16,00,15.20
2010,02,19,16,01,15.20
2010,02,19,16,02,15.20
2010,02,19,16,03,15.20
2010,02,19,16,04,15.20
2010,02,19,16,05,15.20
2010,02,19,16,06,15.20
2010,02,19,16,07,15.20
2010,02,19,16,08,15.20
2010,02,19,16,09,15.20
2010,02,19,16,10,15.10
2010,02,19,16,11,15.00
2010,02,19,16,12,15.00
2010,02,19,16,13,15.00
2010,02,19,16,14,15.00
2010,02,19,16,15,15.00
2010,02,19,16,16,15.00
2010,02,19,16,17,15.00
2010,02,19,16,18,15.00
2010,02,19,16,19,15.00
2010,02,19,16,20,15.00
2010,02,19,16,21,15.00
2010,02,19,16,22,14.90
2010,02,19,16,23,14.90
2010,02,19,16,24,14.90
2010,02,19,16,25,14.90
2010,02,19,16,26,14.80
2010,02,19,16,27,14.90
2010,02,19,16,28,14.90
2010,02,19,16,29,14.90
2010,02,19,16,30,14.80
2010,02,19,16,31,14.70
2010,02,19,16,32,14.70
2010,02,19,16,33,14.70
2010,02,19,16,34,14.60
2010,02,19,16,35,14.60
2010,02,19,16,36,14.50
2010,02,19,16,37,14.30
2010,02,19,16,38,14.20
2010,02,19,16,39,14.10
2010,02,19,16,40,14.00
2010,02,19,16,41,13.90
2010,02,19,16,42,13.90
2010,02,19,16,43,13.80
2010,02,19,16,44,13.80
2010,02,19,16,45,13.80
2010,02,19,16,46,13.80
2010,02,19,16,47,13.80
2010,02,19,16,48,13.80
2010,02,19,16,49,13.80
2010,02,19,16,50,13.80
2010,02,19,16,51,13.80
2010,02,19,16,52,13.70
2010,02,19,16,53,13.70
2010,02,19,16,54,13.70
2010,02,19,16,55,13.60
2010,02,19,16,56,13.60
2010,02,19,16,57,13.60
2010,02,19,16,58,13.60
2010,02,19,16,59,13.60
2010,02,19,17,00,13.60
2010,02,19,17,01,13.50
2010,02,19,17,02,13.50
2010,02,19,17,03,13.50
2010,02,19,17,04,13.40
2010,02,19,17,05,13.40
2010,02,19,17,06,13.40
2010,02,19,17,07,13.30
2010,02,19,17,08,13.30
2010,02,19,17,09,13.20
2010,02,19,17,10,13.20
2010,02,19,17,11,13.10
2010,02,19,17,12,13.00
2010,02,19,17,13,13.00
2010,02,19,17,14,12.90
2010,02,19,17,15,12.90
2010,02,19,17,16,12.90
2010,02,19,17,17,12.80
2010,02,19,17,18,12.80
2010,02,19,17,19,12.70
2010,02,19,17,20,12.60
2010,02,19,17,21,12.50
2010,02,19,17,22,12.40
2010,02,19,17,23,12.30
2010,02,19,17,24,12.10
2010,02,19,17,25,11.90
2010,02,19,17,26,11.70